Tracking 20721 objects as of 31-May-2020
HD Live streaming from Space Station
objects crossing your sky now
Track the CREW DRAGON and SPACE STATION

FENGYUN 1C DEB

Track FENGYUN 1C DEB now!
10-day predictions


NORAD ID: 33664
Int'l Code: 1999-025DEZ
Perigee: 775.7 km
Apogee: 1,018.0 km
Inclination: 98.7 °
Period: 102.8 minutes
Semi major axis: 7267 km
RCS: 0.0059 m2 (small)
Launch date: May 10, 1999
Source: People's Republic of China (PRC)
Launch site: Taiyaun Space Center, China (TSC)

Note: This is SATELLITE DEBRIS
aabbcc
Your satellite tracking list
Your tracking list is empty




NASA's NSSDC Master Catalog

Two Line Element Set (TLE):
1 33664U 99025DEZ 20132.04147771 +.00000072 +00000-0 +67114-4 0  9998
2 33664 098.7073 357.2719 0166723 002.6974 357.5054 14.01176851621298
Source of the keplerian elements: AFSPC